Location: StarHub Observatory
(35.2598°N, 77.5855°W)
Time: 16:43:19
(UTC-05:00)

X-37B - Visible Passes

Search period start: 01 December 2021 00:00
Search period end: 11 December 2021 00:00
Orbit: 330 x 341 km, 45.0° (Epoch: 20 November)

Date Brightness Start Highest point End Pass type
(mag) Time Alt. Az. Time Alt. Az. Time Alt. Az.
03 Dec 2.1 18:33:40 10° SSW 18:35:19 24° S 18:35:19 24° S visible
04 Dec 2.5 18:53:43 10° WSW 18:55:10 26° WSW 18:55:10 26° WSW visible
05 Dec 1.5 17:39:07 10° SSW 17:41:39 29° SE 17:43:42 13° E visible
05 Dec 3.8 19:14:34 10° W 19:14:56 12° W 19:14:56 12° W visible
06 Dec 0.3 17:59:09 10° WSW 18:02:01 80° NNW 18:03:24 27° NE visible
07 Dec 1.7 18:19:58 10° W 18:22:33 29° NNW 18:23:02 27° N visible
08 Dec 2.8 18:41:16 10° WNW 18:42:38 16° NNW 18:42:38 16° NNW visible
09 Dec 1.7 17:25:23 10° W 17:27:59 30° NNW 17:30:34 10° NE visible
10 Dec 2.5 17:46:41 10° WNW 17:48:40 17° NNW 17:50:30 11° NNE visible
